Temp
11 11 11 11 11 11 12 12 12 12 12 12 12 12 12 12 12 12 12 12 12 12 12 12 12 13 13 13 13 13 13 13 13 13 13 12 12 12 13 13 13 13 13 14 14 14 14 14 14 14 14 14 14 14 14 14 14 14 14 14 14 14 14 14 14 14 14 14 14
11 11 11 11 12 12 12 12 12 12 12 12 12 12 13 13 13 12 12 12 12 12 12 12 12 12 12 12 12 12 13 13 13 13 13 12 12 12 12 13 13 13 13 13 14 14 14 14 14 14 14 14 14 14 14 14 14 14 14 14 14 14 14 14 14 14 14 14 14
11 11 11 11 12 12 12 12 12 12 13 13 13 13 13 13 13 13 13 13 13 12 12 12 12 12 12 12 12 12 13 13 13 12 12 12 12 12 12 13 13 13 13 13 13 14 14 14 14 14 14 14 14 14 14 14 14 14 14 14 14 14 14 14 14 14 14 14 14
11 11 11 11 12 12 12 12 12 13 13 13 13 13 13 13 13 13 13 13 13 13 13 13 13 13 13 12 12 12 12 13 12 12 12 12 12 12 12 13 13 13 13 13 13 13 14 14 14 14 14 14 14 14 14 13 14 14 14 14 14 14 14 14 14 13 13 14 14
11 11 11 11 11 12 12 12 12 13 13 13 13 13 12 13 13 13 13 13 13 14 14 14 14 14 14 13 13 13 12 12 12 12 12 12 12 12 12 12 13 13 13 13 13 13 13 13 13 13 14 14 14 14 14 14 14 14 14 14 14 13 13 13 13 13 13 13 13
11 11 11 11 11 12 12 12 12 13 13 13 13 12 12 12 12 13 13 13 14 14 14 14 14 14 14 14 14 13 13 12 12 12 12 12 12 12 12 12 12 13 13 13 13 13 13 13 13 13 13 13 13 13 14 14 14 14 14 13 13 13 13 13 13 13 13 13 13
10 11 11 11 11 11 12 12 12 12 12 12 12 12 12 12 12 13 13 13 14 14 14 14 15 15 15 14 14 13 13 12 12 12 12 12 12 12 12 12 12 13 13 13 13 13 13 13 13 13 13 13 13 13 13 14 14 14 13 13 13 13 13 13 13 13 13 13 13
10 10 10 11 11 11 11 12 12 12 12 12 12 12 12 12 13 13 13 13 14 14 14 14 14 15 15 14 14 13 12 12 12 12 12 12 12 12 12 12 12 13 13 13 13 13 13 13 13 13 13 13 13 13 13 13 13 13 13 13 13 13 13 13 13 13 13 13 13
10 10 10 11 11 11 12 12 12 11 11 11 12 12 12 12 13 13 13 14 14 14 14 14 14 14 14 14 13 12 12 12 12 12 12 12 12 12 12 12 12 12 13 13 12 12 12 12 13 13 13 13 13 13 13 13 13 13 13 13 13 13 13 13 13 13 13 13 13
11 11 10 11 11 11 12 12 12 11 11 11 11 12 12 12 12 13 13 13 13 13 13 13 13 13 13 12 12 12 11 11 12 12 12 12 12 12 12 12 12 12 12 12 12 12 12 12 13 13 13 13 13 13 13 13 13 13 13 13 13 13 13 13 13 13 13 13 13
11 11 11 11 11 11 11 11 11 11 11 11 12 12 12 12 12 12 12 12 12 12 13 13 12 12 12 12 11 11 11 11 11 11 11 11 12 12 12 12 12 12 12 12 12 12 12 12 12 12 12 12 12 12 12 12 12 12 12 12 12 12 12 12 13 13 13 13 13
11 11 11 11 11 11 11 11 11 11 11 11 11 12 12 12 12 11 11 11 12 12 12 12 12 12 12 11 11 11 11 11 11 11 11 12 12 12 12 12 12 12 12 12 12 12 12 12 12 12 12 12 12 12 12 12 12 12 12 12 12 12 13 13 13 13 13 13 12
11 11 11 11 11 11 11 11 11 11 11 11 11 11 11 11 11 11 11 11 11 11 11 12 12 12 12 12 12 11 11 11 11 11 11 12 12 12 12 12 12 12 12 12 12 12 12 12 12 12 12 12 12 12 12 12 13 13 13 13 13 13 13 13 13 13 12 12 12
11 11 11 11 11 11 11 11 11 11 11 11 11 11 11 11 11 11 11 11 11 11 11 11 12 12 12 12 12 12 11 11 11 11 12 12 12 12 12 12 12 12 12 12 12 12 12 12 12 12 12 12 12 12 12 13 13 13 13 13 13 13 13 13 12 12 12 12 12
11 11 10 10 10 11 11 11 11 11 11 11 11 11 11 11 11 11 11 11 11 11 11 12 12 12 12 12 12 12 11 11 11 11 11 12 12 12 12 12 12 12 12 12 12 12 12 12 12 12 12 12 12 12 12 12 13 13 13 13 13 12 12 12 12 12 12 12 12
11 11 10 10 11 11 11 11 11 11 11 11 11 11 11 11 11 11 11 11 11 12 12 12 12 12 12 12 12 11 11 11 11 11 12 12 12 12 12 12 12 12 12 12 12 12 12 12 12 12 12 12 12 12 12 12 12 12 12 12 12 12 12 12 12 12 12 12 12
11 11 11 11 11 11 11 11 11 11 11 11 11 11 11 11 11 11 11 11 11 12 12 12 11 11 11 11 11 11 11 11 11 11 12 12 12 12 12 12 12 12 12 12 12 12 12 12 12 12 12 11 11 11 11 12 12 12 12 12 11 11 11 11 11 11 11 11 11
11 11 11 10 10 11 11 11 11 11 11 11 11 11 11 11 11 11 12 12 12 12 12 12 12 12 11 11 11 11 11 11 11 12 12 12 12 12 12 12 12 12 12 12 12 12 12 12 11 11 11 11 11 11 11 11 11 11 11 11 11 11 11 11 11 11 11 11 11
10 10 10 11 11 11 11 11 11 11 11 11 11 10 10 11 11 11 11 12 12 12 12 12 11 11 11 11 11 11 11 11 12 12 12 12 12 12 12 12 12 11 11 11 11 12 12 11 11 11 11 11 11 11 11 11 11 11 11 11 11 10 11 11 11 11 11 11 11
11 11 11 11 11 11 11 11 11 11 11 11 10 10 10 10 10 11 11 11 11 11 11 11 11 11 11 11 11 11 11 11 11 12 12 12 12 12 11 11 11 11 11 11 11 11 11 11 10 10 10 11 11 11 11 11 11 11 11 11 11 11 11 10 10 10 10 10 10
11 11 11 11 11 11 11 11 11 11 11 11 10 10 10 10 10 11 11 11 11 11 11 11 11 11 10 10 10 10 11 11 11 11 11 11 11 11 11 11 10 10 10 10 10 10 10 10 10 10 10 11 11 11 11 11 11 11 11 11 11 11 11 11 10 10 10 10 10
11 11 11 11 11 11 10 10 11 11 11 10 10 10 10 10 10 11 11 11 11 11 11 11 11 11 11 11 11 11 11 11 11 11 11 11 11 10 10 10 10 10 10 10 10 10 10 10 10 10 10 11 11 11 11 11 11 11 11 11 11 11 11 11 10 10 10 10 9
11 11 11 11 11 11 10 10 10 10 10 10 10 10 10 10 10 10 11 11 11 11 11 11 11 11 11 11 11 11 11 11 11 11 11 10 10 10 10 10 10 9 9 9 9 9 10 10 10 11 11 11 11 11 11 10 10 10 10 10 11 11 11 11 10 10 10 9 9
11 11 11 11 11 11 11 10 10 10 10 10 10 10 10 10 10 10 10 10 11 11 11 11 11 11 11 11 11 11 11 11 11 11 10 10 10 10 10 10 10 10 10 10 10 10 10 10 11 11 11 11 11 11 10 10 10 10 10 10 10 10 10 10 10 10 10 10 10
10 10 10 10 10 11 11 11 10 10 10 10 10 10 10 10 10 10 10 10 10 10 10 11 11 11 11 11 11 11 11 11 10 10 10 10 11 11 11 11 11 10 10 11 10 10 10 11 11 11 11 11 11 10 10 10 10 10 10 10 10 10 10 10 10 10 10 10 10
9 9 9 10 10 10 10 10 10 10 10 10 10 10 10 10 10 11 11 11 10 10 10 11 11 11 11 11 11 11 11 11 11 10 10 10 10 11 11 11 10 10 10 10 10 10 10 10 10 10 10 10 10 10 10 10 10 10 10 10 10 10 9 9 9 10 9 9 9
8 8 8 8 9 9 9 9 10 10 10 10 10 10 10 10 10 10 11 11 11 11 10 11 11 11 11 11 11 11 11 11 11 11 11 11 10 10 10 10 10 10 10 10 10 10 10 10 10 10 10 10 10 10 10 10 10 10 10 9 9 9 9 9 9 9 9 9 9
8 8 8 8 8 8 9 9 9 9 10 10 10 10 10 10 10 10 10 10 10 10 10 10 10 10 10 10 10 10 11 11 11 11 11 11 10 10 10 10 10 10 10 10 10 10 10 10 10 10 10 10 10 10 10 10 10 10 9 9 9 9 9 9 9 9 9 9 9
8 8 8 8 9 9 9 9 9 9 9 9 9 10 10 10 10 10 10 10 10 10 10 10 10 10 10 10 10 10 10 10 10 10 10 10 10 10 10 10 10 10 10 10 10 10 10 10 10 10 10 10 10 10 10 10 10 9 9 9 9 8 8 8 8 8 9 9 9
8 8 8 8 8 9 9 9 9 9 9 9 9 9 9 9 9 9 9 9 9 9 10 10 10 10 10 10 10 10 10 10 10 10 10 10 10 9 9 9 10 10 10 10 10 10 10 10 10 10 10 10 10 10 10 9 9 9 9 8 8 8 8 8 8 8 8 8 8
8 8 8 8 8 9 9 9 9 9 9 9 9 9 9 9 9 9 9 9 9 9 9 9 10 10 10 10 10 9 9 9 9 9 9 9 9 9 9 9 9 9 9 10 10 10 10 10 10 10 10 9 9 9 9 9 9 8 8 8 7 7 7 7 7 7 7 8 8
9 9 9 9 9 9 9 9 9 9 9 9 9 9 9 9 9 9 9 9 9 9 9 9 9 9 9 9 9 9 9 9 9 9 9 9 9 9 9 9 9 9 9 9 10 10 10 10 9 9 9 9 9 9 8 8 8 7 7 7 7 7 7 7 7 7 7 7 7
8 8 8 9 9 9 9 9 9 9 9 9 9 9 9 9 9 9 9 9 9 9 9 9 9 9 9 9 9 9 9 9 9 9 9 9 9 9 9 9 9 9 9 9 9 9 9 9 9 9 8 8 8 8 8 7 7 7 7 7 7 7 7 7 7 7 7 7 7
7 7 7 7 8 8 8 8 8 8 9 9 9 9 9 9 9 9 9 9 8 8 8 9 9 9 9 9 9 9 9 9 9 9 9 9 9 9 9 9 9 8 8 8 8 8 8 8 8 8 8 8 7 7 7 7 7 7 6 6 6 6 6 7 7 7 7 7 7
7 7 7 7 7 7 7 7 7 7 8 8 8 8 8 8 8 8 8 8 8 8 8 8 8 8 8 8 8 8 8 8 8 8 8 8 8 8 8 8 8 8 8 8 8 8 8 7 7 7 7 7 7 7 7 7 6 6 6 6 6 6 6 6 6 6 6 6 6
6 7 7 7 7 7 7 7 7 7 7 7 7 7 7 7 7 7 7 7 8 8 8 7 7 7 8 8 7 7 7 7 7 7 7 7 7 7 7 7 7 7 7 7 7 7 7 7 7 7 7 7 7 7 7 7 7 6 6 6 6 6 6 6 6 6 6 6 6
6 6 6 7 7 6 6 6 6 6 7 7 7 7 7 7 7 7 7 7 7 7 7 7 7 7 7 7 7 7 7 7 7 7 7 7 7 7 7 7 7 7 7 7 7 7 7 7 7 7 7 7 7 7 7 6 6 6 6 6 6 5 5 5 5 5 6 6 6
6 6 6 6 6 6 6 6 6 6 6 6 6 6 6 6 6 6 6 6 6 6 6 6 6 6 6 6 6 6 6 6 6 6 6 6 6 7 7 7 7 7 6 6 6 6 7 7 7 7 7 7 6 6 6 6 6 6 6 6 5 5 5 5 5 6 6 6 6
5 5 5 6 6 6 6 6 6 6 6 6 6 6 6 6 6 6 6 5 5 5 5 5 5 5 6 6 6 6 6 6 6 6 6 6 6 6 6 7 6 6 6 6 6 6 6 6 6 6 6 6 6 6 6 6 6 6 6 6 6 6 6 6 6 6 6 6 6
5 5 5 5 5 5 5 5 6 6 5 5 5 5 5 6 6 6 5 5 5 5 5 5 5 5 5 5 6 6 6 6 5 5 5 6 6 6 6 6 6 6 6 6 6 6 6 6 6 6 5 5 5 5 5 6 6 6 6 6 6 6 6 6 6 6 6 6 6
5 5 5 5 5 5 5 5 5 5 5 5 5 5 5 5 6 5 5 5 5 5 5 5 5 5 5 5 5 5 5 5 5 5 5 5 5 5 5 5 6 6 5 5 5 5 5 5 5 5 5 5 5 5 5 5 6 6 6 5 5 5 5 5 5 5 5 5 5
Height
1396 1398 1400 1401 1402 1404 1405 1407 1409 1411 1412 1414 1415 1417 1419 1422 1425 1427 1429 1431 1433 1435 1436 1437 1439 1441 1444 1447 1449 1451 1454 1456 1459 1460 1461 1463 1465 1467 1470 1471 1474 1475 1477 1478 1479 1481 1482 1484 1485 1487 1489 1490 1491 1493 1494 1495 1496 1497 1499 1500 1502 1503 1505 1506 1506 1507 1508 1509 1510
1395 1396 1398 1400 1401 1403 1405 1407 1409 1410 1412 1414 1416 1418 1420 1421 1424 1426 1428 1430 1432 1434 1436 1438 1440 1441 1443 1445 1448 1450 1452 1455 1457 1459 1461 1462 1464 1466 1469 1471 1473 1474 1475 1476 1478 1479 1480 1482 1484 1485 1487 1489 1490 1491 1492 1493 1495 1496 1497 1499 1500 1502 1503 1504 1505 1506 1507 1508 1509
1393 1395 1397 1399 1400 1402 1404 1406 1408 1410 1412 1414 1416 1418 1420 1421 1423 1425 1427 1429 1430 1433 1435 1437 1440 1441 1443 1445 1447 1449 1451 1454 1456 1458 1460 1461 1464 1466 1468 1470 1472 1473 1474 1475 1476 1477 1479 1480 1482 1484 1485 1487 1488 1490 1491 1492 1493 1495 1496 1498 1499 1501 1502 1503 1504 1505 1505 1506 1507
1391 1393 1395 1397 1399 1400 1403 1405 1407 1409 1411 1413 1415 1416 1418 1420 1422 1424 1425 1427 1429 1431 1433 1435 1438 1440 1443 1445 1447 1449 1450 1453 1454 1456 1458 1460 1463 1465 1467 1469 1470 1471 1472 1474 1475 1476 1477 1479 1480 1482 1484 1485 1486 1488 1489 1490 1492 1493 1495 1496 1498 1500 1500 1502 1503 1504 1504 1505 1506
1389 1391 1393 1395 1397 1399 1402 1404 1406 1408 1410 1411 1413 1415 1417 1419 1420 1422 1424 1425 1427 1429 1431 1433 1436 1439 1441 1444 1446 1448 1450 1452 1453 1455 1457 1460 1462 1464 1465 1467 1468 1470 1471 1472 1473 1474 1476 1477 1479 1480 1482 1484 1485 1486 1487 1489 1490 1492 1493 1495 1497 1498 1500 1501 1502 1502 1503 1504 1505
1388 1390 1392 1394 1396 1398 1401 1403 1405 1407 1408 1410 1411 1413 1415 1417 1419 1421 1422 1424 1425 1427 1430 1432 1434 1437 1439 1442 1444 1446 1448 1450 1452 1454 1456 1458 1460 1461 1463 1465 1466 1468 1469 1470 1471 1473 1475 1476 1478 1479 1480 1482 1484 1485 1486 1487 1489 1490 1491 1493 1495 1497 1499 1500 1500 1501 1502 1503 1504
1386 1389 1391 1393 1395 1397 1400 1402 1404 1405 1407 1409 1410 1412 1414 1416 1418 1419 1421 1423 1425 1427 1429 1431 1433 1435 1437 1440 1442 1444 1446 1448 1450 1452 1454 1456 1458 1460 1461 1463 1464 1466 1467 1469 1470 1472 1473 1475 1476 1477 1479 1480 1482 1483 1485 1486 1487 1488 1490 1492 1494 1495 1497 1498 1499 1500 1501 1502 1502
1386 1388 1390 1391 1394 1396 1399 1401 1403 1405 1406 1408 1410 1412 1413 1415 1417 1419 1420 1422 1424 1426 1428 1430 1431 1433 1435 1437 1440 1442 1444 1446 1448 1450 1452 1454 1455 1457 1459 1461 1462 1464 1466 1467 1469 1470 1472 1473 1475 1476 1477 1479 1480 1481 1483 1484 1485 1486 1488 1490 1492 1494 1495 1497 1498 1499 1500 1500 1501
1386 1387 1389 1391 1393 1395 1398 1400 1402 1404 1406 1407 1409 1411 1413 1415 1416 1418 1420 1422 1424 1425 1427 1429 1430 1432 1434 1436 1438 1440 1442 1445 1446 1448 1450 1452 1454 1455 1457 1459 1461 1463 1465 1466 1468 1469 1471 1472 1474 1475 1476 1477 1479 1480 1480 1482 1483 1485 1486 1489 1490 1492 1494 1495 1496 1497 1498 1499 1500
1385 1387 1389 1391 1393 1395 1397 1399 1401 1403 1405 1407 1409 1411 1413 1415 1416 1418 1420 1421 1423 1425 1427 1428 1429 1431 1433 1435 1437 1439 1441 1443 1445 1447 1449 1450 1452 1454 1455 1457 1459 1461 1463 1465 1467 1469 1470 1471 1473 1474 1475 1476 1477 1478 1479 1480 1481 1483 1485 1486 1488 1490 1492 1493 1494 1495 1496 1497 1498
1384 1386 1388 1390 1392 1394 1396 1399 1401 1403 1405 1407 1408 1410 1412 1414 1415 1417 1419 1421 1423 1424 1425 1427 1428 1430 1432 1434 1436 1438 1440 1441 1444 1445 1447 1449 1451 1452 1454 1456 1458 1460 1462 1464 1466 1467 1469 1471 1472 1473 1475 1475 1476 1477 1478 1478 1479 1481 1482 1484 1486 1488 1490 1491 1492 1493 1494 1495 1496
1384 1386 1388 1390 1392 1395 1397 1399 1401 1403 1405 1406 1408 1410 1411 1413 1415 1416 1418 1420 1421 1423 1424 1426 1427 1429 1430 1432 1435 1436 1438 1440 1442 1445 1446 1448 1450 1452 1454 1455 1457 1459 1461 1463 1465 1466 1468 1470 1471 1473 1474 1474 1475 1475 1476 1476 1477 1479 1480 1482 1484 1486 1488 1489 1490 1491 1492 1493 1494
1384 1386 1389 1391 1393 1395 1397 1399 1401 1402 1404 1405 1407 1409 1411 1412 1414 1416 1417 1419 1420 1422 1423 1425 1426 1428 1430 1431 1433 1435 1437 1440 1441 1444 1445 1447 1449 1451 1453 1455 1456 1458 1460 1461 1463 1465 1467 1468 1470 1472 1473 1474 1474 1474 1474 1474 1475 1476 1478 1480 1482 1484 1486 1487 1488 1489 1490 1491 1492
1384 1386 1389 1391 1393 1396 1398 1399 1400 1402 1403 1405 1407 1409 1410 1412 1414 1415 1417 1418 1420 1421 1422 1424 1425 1427 1429 1430 1432 1434 1436 1438 1440 1443 1445 1446 1448 1450 1452 1454 1455 1457 1459 1460 1462 1464 1465 1467 1469 1470 1471 1472 1473 1473 1472 1472 1473 1474 1476 1478 1480 1482 1484 1485 1486 1488 1489 1490 1490
1384 1386 1389 1391 1393 1395 1397 1398 1400 1401 1403 1405 1407 1409 1410 1412 1414 1415 1417 1418 1420 1420 1422 1423 1425 1427 1429 1430 1432 1434 1435 1438 1440 1442 1444 1445 1447 1449 1450 1452 1453 1455 1457 1459 1460 1462 1464 1465 1466 1468 1469 1470 1471 1471 1471 1471 1471 1472 1474 1477 1479 1481 1482 1484 1485 1486 1487 1488 1489
1384 1386 1389 1391 1393 1395 1396 1398 1399 1400 1402 1404 1406 1408 1410 1412 1414 1415 1416 1418 1419 1420 1421 1423 1425 1426 1428 1430 1432 1434 1435 1437 1439 1441 1442 1444 1445 1447 1448 1450 1451 1453 1455 1457 1459 1460 1461 1463 1464 1466 1467 1469 1470 1470 1470 1469 1470 1471 1473 1476 1478 1480 1481 1482 1484 1485 1486 1487 1488
1384 1386 1388 1390 1391 1393 1395 1397 1398 1400 1401 1404 1406 1407 1409 1411 1412 1414 1415 1417 1418 1420 1421 1423 1425 1426 1428 1430 1432 1434 1435 1436 1438 1440 1441 1443 1444 1445 1447 1448 1450 1452 1454 1456 1457 1459 1460 1461 1462 1465 1467 1468 1469 1469 1468 1468 1468 1470 1472 1475 1477 1479 1480 1481 1482 1484 1485 1486 1487
1384 1386 1388 1389 1390 1392 1395 1397 1398 1399 1401 1403 1405 1406 1408 1410 1411 1412 1414 1415 1417 1419 1421 1423 1424 1425 1427 1429 1431 1432 1434 1435 1437 1439 1440 1442 1443 1445 1446 1448 1450 1451 1453 1454 1456 1457 1459 1460 1461 1463 1465 1467 1468 1467 1467 1467 1467 1469 1471 1474 1475 1477 1479 1480 1481 1482 1483 1484 1485
1384 1386 1387 1389 1390 1393 1395 1397 1398 1399 1400 1402 1404 1406 1408 1409 1410 1412 1413 1415 1417 1419 1421 1422 1424 1425 1426 1428 1430 1431 1432 1434 1436 1438 1440 1441 1443 1444 1446 1447 1449 1450 1451 1453 1455 1457 1458 1459 1460 1462 1464 1465 1466 1465 1465 1465 1466 1468 1470 1472 1474 1476 1477 1478 1479 1480 1481 1482 1483
1385 1387 1388 1389 1391 1393 1395 1396 1397 1398 1400 1403 1405 1407 1409 1410 1411 1413 1414 1416 1418 1420 1422 1423 1424 1425 1426 1428 1429 1430 1432 1433 1435 1437 1439 1440 1442 1444 1445 1447 1448 1449 1450 1452 1454 1455 1457 1458 1460 1461 1462 1463 1463 1464 1464 1465 1466 1467 1469 1471 1473 1474 1475 1477 1478 1479 1480 1480 1481
1386 1388 1389 1390 1392 1393 1395 1396 1397 1399 1401 1404 1406 1409 1410 1411 1412 1414 1415 1416 1418 1420 1422 1424 1425 1426 1427 1428 1429 1430 1431 1433 1435 1437 1438 1440 1441 1442 1444 1446 1447 1448 1449 1450 1452 1453 1455 1456 1458 1459 1460 1461 1461 1462 1463 1464 1465 1466 1468 1470 1471 1472 1474 1475 1476 1477 1478 1479 1480
1386 1388 1389 1391 1392 1394 1395 1397 1398 1400 1403 1405 1407 1409 1410 1412 1413 1414 1415 1417 1418 1420 1421 1423 1425 1426 1427 1428 1430 1430 1432 1434 1435 1437 1438 1439 1440 1442 1443 1445 1446 1447 1448 1449 1450 1452 1453 1455 1456 1457 1458 1459 1460 1460 1461 1463 1464 1465 1466 1468 1469 1470 1471 1473 1474 1475 1476 1477 1478
1387 1389 1390 1392 1393 1395 1396 1398 1400 1401 1403 1405 1407 1408 1410 1411 1413 1414 1415 1417 1419 1420 1421 1423 1424 1425 1427 1428 1429 1430 1432 1433 1435 1436 1438 1439 1440 1442 1443 1444 1445 1446 1447 1448 1449 1450 1451 1453 1454 1455 1456 1457 1458 1459 1460 1461 1462 1464 1465 1466 1467 1468 1470 1471 1472 1473 1474 1475 1476
1388 1390 1391 1393 1395 1396 1397 1398 1400 1402 1403 1405 1406 1408 1410 1411 1413 1414 1415 1417 1419 1420 1421 1423 1424 1425 1426 1428 1429 1430 1431 1432 1434 1435 1437 1439 1440 1441 1443 1444 1445 1446 1447 1448 1448 1449 1450 1451 1452 1453 1455 1456 1457 1458 1459 1460 1461 1462 1463 1464 1465 1467 1468 1470 1471 1472 1472 1473 1474
1390 1391 1393 1395 1396 1397 1399 1400 1400 1401 1403 1405 1406 1408 1410 1411 1413 1414 1415 1417 1418 1420 1421 1423 1424 1425 1426 1427 1428 1429 1430 1431 1433 1434 1436 1438 1439 1440 1441 1443 1444 1445 1445 1446 1447 1448 1449 1450 1451 1452 1453 1455 1455 1457 1458 1459 1460 1461 1462 1463 1464 1465 1466 1468 1468 1469 1470 1470 1471
1391 1393 1395 1396 1398 1399 1400 1401 1402 1403 1403 1405 1406 1407 1409 1411 1412 1414 1415 1416 1417 1419 1420 1422 1424 1425 1426 1427 1428 1429 1430 1431 1432 1433 1435 1436 1438 1439 1440 1441 1442 1443 1444 1444 1445 1446 1447 1449 1450 1451 1452 1453 1454 1455 1456 1457 1459 1460 1461 1462 1463 1464 1465 1465 1466 1466 1467 1467 1468
1394 1395 1396 1397 1399 1400 1401 1402 1403 1404 1405 1406 1406 1407 1408 1409 1411 1413 1414 1415 1416 1418 1419 1421 1422 1424 1425 1426 1427 1428 1429 1430 1431 1433 1434 1435 1436 1437 1438 1439 1440 1441 1442 1443 1444 1445 1446 1447 1448 1449 1450 1451 1452 1453 1454 1455 1456 1458 1459 1460 1460 1461 1462 1462 1463 1464 1464 1465 1465
1397 1398 1399 1400 1400 1401 1402 1403 1404 1405 1406 1407 1408 1408 1408 1409 1410 1411 1413 1415 1416 1417 1418 1419 1421 1422 1423 1424 1425 1427 1428 1429 1430 1432 1433 1434 1435 1436 1437 1438 1439 1440 1440 1441 1442 1444 1445 1445 1446 1447 1448 1449 1450 1451 1452 1453 1454 1455 1456 1456 1457 1458 1459 1460 1460 1461 1461 1462 1463
1399 1400 1401 1402 1403 1403 1404 1405 1406 1407 1408 1408 1409 1409 1409 1409 1410 1410 1411 1413 1414 1415 1417 1418 1419 1420 1422 1423 1424 1425 1426 1428 1429 1430 1431 1432 1433 1434 1435 1436 1437 1438 1439 1440 1441 1442 1443 1443 1444 1445 1446 1446 1448 1449 1450 1451 1452 1452 1453 1454 1455 1456 1457 1458 1458 1459 1460 1461 1461
1402 1403 1403 1404 1405 1405 1406 1407 1407 1408 1409 1409 1409 1410 1410 1410 1410 1410 1411 1412 1413 1414 1415 1417 1418 1420 1421 1422 1423 1423 1425 1425 1427 1428 1429 1430 1432 1433 1434 1435 1436 1437 1438 1439 1440 1440 1441 1441 1442 1443 1444 1445 1446 1447 1448 1449 1450 1450 1451 1453 1454 1455 1455 1456 1457 1458 1459 1460 1460
1404 1405 1405 1406 1407 1407 1408 1408 1409 1409 1410 1410 1410 1410 1410 1410 1411 1411 1411 1412 1413 1414 1415 1416 1417 1419 1420 1420 1421 1422 1423 1424 1425 1427 1428 1429 1430 1431 1433 1434 1435 1435 1436 1437 1438 1438 1439 1440 1440 1441 1442 1443 1444 1445 1446 1447 1448 1449 1450 1451 1453 1454 1455 1456 1457 1458 1458 1459 1459
1406 1406 1407 1407 1408 1409 1409 1410 1410 1410 1411 1411 1411 1411 1411 1412 1412 1412 1412 1413 1413 1414 1415 1416 1417 1418 1419 1420 1420 1421 1422 1423 1424 1425 1426 1427 1429 1430 1431 1432 1433 1434 1435 1435 1436 1437 1437 1438 1439 1440 1441 1441 1442 1443 1444 1445 1446 1448 1449 1451 1452 1453 1454 1455 1456 1457 1458 1458 1459
1406 1407 1408 1408 1409 1409 1410 1410 1411 1411 1412 1412 1412 1412 1412 1412 1413 1413 1413 1413 1414 1414 1415 1416 1417 1417 1418 1419 1420 1420 1421 1422 1423 1424 1425 1426 1427 1428 1429 1430 1431 1432 1433 1434 1434 1435 1435 1436 1437 1438 1439 1440 1440 1441 1443 1444 1445 1447 1449 1450 1451 1453 1454 1455 1456 1456 1457 1458 1459
1408 1408 1409 1409 1409 1410 1410 1410 1411 1411 1412 1412 1412 1413 1413 1413 1413 1413 1413 1413 1414 1414 1415 1416 1416 1417 1418 1418 1419 1420 1420 1421 1422 1423 1424 1425 1426 1427 1428 1429 1430 1430 1431 1432 1433 1433 1434 1435 1435 1436 1437 1438 1439 1440 1442 1443 1445 1446 1448 1450 1451 1452 1453 1454 1455 1456 1456 1457 1458
1410 1410 1410 1410 1410 1410 1410 1411 1411 1411 1411 1412 1412 1413 1413 1413 1413 1413 1413 1413 1414 1414 1415 1415 1416 1417 1418 1418 1419 1419 1420 1421 1422 1423 1424 1424 1425 1426 1427 1428 1429 1430 1430 1431 1431 1432 1433 1434 1435 1435 1436 1437 1439 1440 1441 1443 1445 1446 1448 1449 1450 1451 1452 1453 1454 1455 1456 1456 1457
1412 1412 1412 1412 1412 1411 1411 1412 1412 1412 1412 1412 1412 1413 1413 1413 1413 1413 1413 1413 1414 1414 1415 1415 1416 1417 1417 1418 1419 1420 1420 1421 1422 1422 1423 1424 1425 1425 1426 1427 1428 1429 1429 1430 1431 1431 1432 1433 1434 1435 1436 1437 1438 1440 1441 1443 1444 1446 1447 1449 1450 1450 1451 1452 1453 1454 1455 1455 1456
1414 1413 1413 1413 1413 1413 1413 1413 1413 1413 1413 1413 1413 1413 1413 1414 1414 1414 1414 1414 1414 1414 1415 1415 1416 1417 1417 1418 1419 1420 1420 1421 1421 1422 1423 1424 1424 1425 1426 1427 1427 1428 1429 1430 1431 1431 1432 1433 1434 1435 1436 1437 1438 1440 1441 1442 1444 1445 1446 1447 1449 1450 1450 1451 1452 1453 1454 1455 1455
1415 1415 1415 1415 1414 1414 1414 1414 1414 1414 1414 1414 1414 1414 1414 1414 1415 1415 1415 1415 1415 1415 1415 1416 1416 1417 1418 1419 1419 1420 1421 1421 1422 1422 1423 1424 1425 1425 1426 1427 1428 1428 1429 1430 1431 1431 1432 1433 1434 1435 1436 1437 1438 1440 1440 1442 1443 1444 1445 1446 1447 1448 1449 1450 1451 1452 1453 1454 1455
1416 1416 1416 1415 1415 1415 1415 1415 1415 1415 1415 1415 1415 1415 1415 1415 1415 1415 1416 1416 1416 1416 1416 1417 1417 1417 1418 1419 1420 1421 1421 1422 1423 1423 1424 1424 1425 1426 1426 1427 1428 1429 1430 1430 1431 1432 1432 1433 1434 1435 1436 1437 1438 1439 1440 1441 1442 1443 1444 1445 1446 1447 1449 1450 1450 1451 1452 1453 1454
1417 1417 1417 1417 1416 1416 1416 1416 1416 1416 1417 1417 1417 1417 1417 1417 1417 1417 1417 1417 1418 1418 1418 1418 1418 1419 1419 1420 1420 1421 1422 1423 1424 1424 1425 1425 1425 1426 1427 1428 1429 1429 1430 1430 1431 1432 1433 1433 1434 1435 1435 1436 1437 1438 1439 1440 1441 1442 1444 1445 1446 1447 1448 1449 1450 1450 1451 1452 1453
1419 1418 1418 1418 1418 1418 1418 1418 1418 1418 1418 1418 1419 1419 1419 1419 1419 1419 1419 1419 1419 1419 1419 1419 1419 1420 1420 1421 1421 1422 1423 1423 1424 1425 1425 1425 1426 1426 1427 1428 1429 1429 1430 1430 1431 1432 1433 1434 1434 1435 1435 1435 1436 1438 1439 1440 1441 1442 1443 1444 1445 1446 1447 1448 1449 1450 1450 1451 1452
Wind_Speed
41 39 37 34 33 34 35 35 34 33 33 34 36 38 38 37 35 33 30 28 29 32 38 43 44 44 43 42 42 40 38 35 36 37 39 41 43 44 44 42 41 40 40 40 41 42 43 43 42 41 40 39 37 36 36 35 34 34 33 32 31 30 29 28 28 27 27 26 26
42 41 37 35 34 34 34 32 29 29 31 34 38 41 43 44 42 40 37 34 32 30 32 36 40 42 43 42 42 40 38 37 37 38 39 40 41 42 42 41 39 38 38 38 39 40 41 41 41 40 38 37 36 36 35 35 34 34 33 32 30 29 29 29 28 27 26 26 25
44 43 39 36 35 35 34 31 29 29 31 35 40 44 46 47 46 44 41 38 35 32 32 33 35 37 39 39 39 38 38 38 39 40 40 40 41 41 41 40 38 37 37 37 38 39 40 40 40 39 38 37 36 36 36 35 34 33 32 30 30 29 29 29 28 27 27 26 25
46 45 41 38 37 36 35 34 32 32 34 37 41 44 46 46 46 44 41 38 36 34 34 34 34 34 35 35 36 36 37 38 40 42 42 42 42 42 41 40 39 37 37 37 38 39 39 40 39 39 38 37 37 36 36 35 33 32 30 29 29 29 29 29 28 28 27 27 26
47 47 44 41 39 38 37 36 35 35 37 40 43 44 45 45 44 43 41 39 38 37 37 36 35 35 34 35 35 36 38 40 42 43 43 43 43 43 42 41 39 38 37 38 39 39 40 40 39 38 38 37 37 36 35 34 32 31 30 29 29 29 29 29 29 29 28 27 27
46 48 46 44 41 40 39 38 38 39 40 42 43 44 44 44 44 43 42 42 41 40 39 39 38 37 36 36 37 38 40 42 43 44 45 45 44 43 42 40 39 38 38 38 39 40 41 41 40 39 38 37 36 36 34 32 31 30 29 29 29 30 30 30 30 29 28 28 27
44 46 47 46 44 42 40 40 40 41 42 43 44 44 44 44 44 43 43 43 43 42 42 41 40 39 38 38 39 41 43 45 45 46 46 45 44 43 41 39 38 38 38 39 40 41 41 41 40 39 38 37 36 35 34 32 31 30 29 29 30 30 30 30 30 29 29 28 28
41 44 46 46 45 44 42 42 42 42 42 43 43 44 44 43 43 43 43 43 43 43 42 41 40 39 39 40 42 44 45 47 47 46 46 45 43 42 40 39 38 38 39 40 41 41 41 41 40 39 39 38 37 36 34 32 31 30 29 30 30 30 30 30 30 29 29 29 29
40 43 45 46 46 45 44 43 43 42 42 42 42 42 42 42 42 42 41 41 41 40 40 39 39 39 40 41 43 45 47 48 47 46 45 44 42 41 39 38 38 38 39 39 40 41 41 40 40 39 38 38 37 36 34 32 31 30 30 30 30 30 30 30 30 30 30 30 31
41 42 44 45 46 46 45 44 43 41 40 40 40 41 41 41 40 39 38 37 37 37 37 37 37 38 39 41 43 45 47 47 47 46 44 43 41 40 39 39 38 39 39 40 40 40 40 40 39 38 38 37 36 35 34 32 31 31 30 30 30 30 30 30 31 31 32 33 33
41 42 44 45 46 46 45 43 41 40 39 39 39 39 39 39 38 37 36 35 35 35 36 35 35 36 38 40 42 44 45 46 46 45 44 42 41 40 39 39 39 39 39 40 40 40 40 39 39 38 38 37 36 35 34 33 32 31 31 31 30 30 30 31 32 33 34 35 35
41 42 43 44 44 44 43 41 40 39 39 39 39 39 38 38 38 37 37 37 37 37 36 35 34 35 36 38 40 42 43 44 44 44 43 42 41 40 39 39 39 39 40 41 41 41 40 39 38 38 38 37 37 36 35 34 33 32 31 30 30 30 31 32 33 34 34 34 34
40 41 41 42 42 42 41 41 41 40 40 40 39 39 38 38 37 38 38 38 39 38 37 35 34 34 35 37 39 40 42 42 43 43 42 41 41 41 40 40 40 40 41 42 42 41 41 40 39 38 38 38 37 36 36 35 34 32 31 31 31 31 31 32 33 33 33 33 33
39 39 39 40 40 41 41 40 41 42 42 42 41 40 39 38 38 38 38 38 38 37 36 35 35 35 36 38 39 41 41 42 42 42 42 42 42 42 43 43 42 42 43 43 43 42 41 40 39 39 38 37 36 35 34 34 33 32 31 31 31 32 32 32 32 32 32 32 32
37 38 38 39 41 42 42 40 40 41 44 44 43 41 40 40 39 39 38 38 37 36 35 35 35 36 36 38 39 41 41 42 42 42 43 43 44 45 45 45 44 44 43 43 42 40 39 38 38 37 36 35 34 33 32 32 31 31 30 30 31 31 31 31 30 30 30 30 31
38 38 39 41 43 45 43 39 38 40 43 44 43 42 41 40 39 39 38 38 37 36 35 35 36 36 37 38 39 40 41 42 42 42 43 44 44 44 44 44 43 42 40 39 38 36 35 35 35 34 33 31 30 29 29 29 29 28 28 28 29 29 29 29 28 28 28 29 29
38 39 39 41 44 45 43 38 37 38 40 41 41 40 39 39 39 38 38 37 37 36 36 36 37 37 38 38 40 40 40 40 40 40 41 41 41 41 41 40 39 37 37 36 35 34 33 33 32 31 29 26 25 25 25 26 25 25 24 24 25 26 27 27 27 27 27 27 28
36 36 37 39 42 43 40 36 34 35 37 37 37 36 35 36 37 37 37 37 37 36 36 36 37 37 38 39 40 39 37 37 38 38 38 38 38 38 38 37 37 36 36 36 35 34 33 32 30 28 25 24 23 22 22 22 22 21 20 20 20 21 23 24 25 25 25 26 26
30 31 32 34 38 38 35 31 30 32 33 33 31 30 30 33 34 34 34 34 34 34 34 34 33 34 36 37 38 36 35 35 37 37 37 37 37 37 37 37 37 37 36 36 35 34 33 31 29 27 25 24 23 21 20 20 19 19 18 17 17 17 18 20 21 21 22 23 24
24 25 27 29 33 33 30 27 27 28 29 28 25 24 26 29 31 31 30 29 27 27 26 27 27 28 29 31 32 32 31 32 34 35 36 36 36 37 37 37 37 36 35 36 36 35 33 31 29 27 26 24 23 21 19 18 17 17 16 16 16 16 16 17 17 17 18 18 20
20 21 23 26 28 29 27 25 25 25 25 23 21 20 22 25 28 29 28 26 23 21 20 21 21 22 23 25 26 26 26 27 28 30 31 33 34 35 36 35 35 35 35 35 35 33 31 29 27 26 24 23 21 19 18 16 16 16 16 17 17 18 18 18 18 17 17 17 19
21 22 23 25 27 26 24 22 22 21 21 20 19 18 19 20 23 25 26 25 23 21 20 19 19 19 20 21 22 23 23 23 24 25 26 29 31 33 33 33 33 34 34 34 33 31 29 27 25 23 22 20 19 18 18 17 17 17 17 18 19 20 21 21 22 21 21 21 21
23 23 25 26 26 25 23 21 19 18 18 18 18 18 17 17 19 20 22 23 22 21 19 18 18 18 18 19 20 21 23 24 23 24 25 27 29 30 30 30 31 30 30 29 29 28 27 25 24 22 21 21 21 20 20 19 19 19 19 20 21 23 24 25 26 26 25 24 24
24 25 26 26 25 24 23 21 19 17 17 17 17 17 17 17 17 18 19 20 20 20 18 17 17 17 18 18 19 21 24 26 26 27 27 28 29 29 28 28 27 27 26 26 26 26 26 26 25 25 25 24 24 24 22 21 20 20 21 22 24 25 27 28 29 29 28 26 24
19 21 22 23 22 22 23 22 20 19 17 16 16 16 17 17 18 19 21 21 21 21 21 20 20 20 19 19 20 22 25 27 29 30 31 31 31 30 29 28 27 27 28 28 29 29 29 29 29 28 28 28 27 26 25 23 22 21 22 23 25 26 28 30 31 32 31 29 26
18 15 14 12 12 14 17 20 21 20 19 18 18 18 18 19 20 22 23 24 24 24 24 24 24 24 23 23 23 25 27 29 30 31 32 33 33 32 31 30 30 31 31 32 32 31 31 31 30 30 29 29 28 28 26 25 24 23 24 24 26 27 29 30 32 33 33 31 29
23 21 20 17 15 11 8 8 13 17 20 21 22 23 23 23 24 25 25 26 26 25 25 26 27 27 27 27 28 29 30 31 31 31 32 33 34 34 34 33 33 33 33 32 31 31 31 31 31 30 30 29 29 29 28 27 26 26 26 27 27 28 29 31 33 34 34 32 31
19 18 17 17 17 16 14 11 7 6 11 16 20 23 24 26 27 29 29 29 29 28 27 27 28 28 28 29 31 32 33 33 33 33 34 34 35 35 35 35 35 34 33 31 29 29 28 29 30 30 29 29 28 28 28 28 28 28 29 29 29 30 30 31 32 33 33 32 31
17 15 14 13 12 11 11 10 8 7 4 4 8 13 17 21 26 29 32 33 33 32 31 30 29 29 28 29 31 33 34 35 35 36 36 36 36 36 36 35 35 34 32 30 27 26 25 25 25 25 25 25 25 25 26 27 28 28 28 27 28 28 29 30 31 31 32 31 30
12 10 9 9 8 8 7 5 4 4 3 3 2 1 5 10 15 21 26 29 31 32 32 32 31 29 29 30 31 33 34 35 36 37 37 37 37 36 36 35 34 33 31 28 26 24 24 23 23 23 23 23 24 25 26 27 26 25 24 24 24 25 26 27 28 29 29 29 28
6 5 5 5 5 5 5 4 2 1 1 1 1 2 2 1 4 9 13 18 21 23 25 26 26 26 27 29 30 31 32 33 34 35 36 36 36 36 36 35 34 32 30 28 25 24 24 24 24 24 24 25 25 25 24 23 21 20 20 20 22 23 24 24 25 26 26 25 25
4 4 4 4 4 4 4 4 3 3 2 2 2 3 3 3 3 3 6 9 11 13 15 17 18 19 21 22 24 25 27 28 30 31 32 33 33 34 34 33 33 31 30 28 26 25 25 25 25 25 25 24 23 22 20 18 17 17 18 19 21 21 22 22 22 21 21 20 19
5 4 3 3 3 4 5 5 5 5 5 5 5 6 6 6 6 6 5 5 7 8 10 11 12 13 14 15 17 19 21 23 25 26 28 29 29 30 30 30 30 30 28 27 26 25 25 24 24 23 22 21 19 18 17 16 16 17 18 19 19 19 19 18 17 16 15 14 13
10 8 7 5 4 3 3 3 4 4 5 5 6 6 6 6 6 6 6 6 6 6 8 9 10 10 11 13 14 16 17 19 21 22 23 24 25 25 26 26 26 26 25 23 22 21 20 20 19 19 18 17 17 17 17 17 18 18 18 18 17 16 15 14 13 12 11 11 10
13 12 10 9 8 6 5 4 3 2 2 3 4 5 5 5 5 5 5 5 6 6 7 8 8 9 10 11 12 13 14 15 17 18 19 19 20 20 21 21 21 21 19 18 17 17 16 16 16 16 16 17 17 17 18 18 18 18 18 17 16 15 14 13 12 11 10 10 9
16 15 14 13 11 10 9 8 7 5 4 3 2 2 3 3 3 4 4 4 5 5 6 7 7 8 8 9 10 11 11 12 13 14 15 15 16 16 16 17 17 16 16 15 15 15 15 16 16 16 17 17 18 18 18 18 18 17 17 16 15 14 14 13 12 12 11 10 10
17 16 16 15 14 13 12 11 10 9 8 7 6 5 4 3 2 2 2 3 3 4 5 6 6 7 7 7 7 8 9 9 10 11 12 13 13 13 14 15 15 16 16 16 16 16 16 16 17 17 17 17 18 18 18 18 17 16 15 15 14 14 14 13 12 12 11 11 10
17 16 15 15 14 14 13 12 12 11 10 10 9 8 8 7 6 6 5 5 4 4 5 6 6 7 7 7 7 7 7 7 8 10 11 12 12 12 13 15 16 16 17 17 17 18 18 17 17 17 17 17 17 17 17 16 16 15 15 14 14 14 14 13 13 12 12 12 11
16 16 15 15 14 14 13 12 12 12 11 11 10 9 9 8 8 7 7 6 5 5 5 6 7 8 8 8 8 8 8 8 8 9 10 12 12 12 13 14 16 17 17 18 18 18 18 18 18 17 17 17 17 16 16 15 15 15 15 15 15 15 14 14 14 13 13 12 12
15 15 15 14 14 13 13 12 12 12 11 10 10 9 8 7 6 6 6 5 5 5 5 6 6 7 8 8 9 9 10 10 10 10 11 11 12 12 13 14 15 16 16 16 16 16 16 17 17 17 16 16 15 15 14 14 15 15 15 15 15 15 15 14 14 14 13 13 12
15 15 14 14 14 13 12 12 12 11 10 10 9 8 7 6 5 4 3 3 3 3 4 4 5 5 6 7 8 9 10 11 11 11 11 11 12 12 12 13 13 14 14 15 14 15 15 15 15 15 15 15 15 14 14 14 15 15 15 15 15 15 14 14 13 13 12 12 12
Wind_Direction
199 193 192 194 196 196 195 195 198 200 200 197 197 199 202 204 205 204 202 197 190 185 185 187 190 192 194 195 195 194 194 198 202 205 205 204 205 208 211 213 214 214 213 214 214 214 215 214 214 213 213 212 212 211 210 210 209 209 209 210 210 210 211 212 214 215 217 219 221
196 192 191 192 193 194 194 195 200 204 204 202 202 204 207 210 210 209 208 207 204 201 197 194 193 192 193 194 195 196 197 200 203 205 205 205 206 208 211 213 213 213 212 212 213 213 214 214 213 212 211 210 209 209 208 207 207 206 207 208 209 210 212 214 216 218 221 222 224
195 192 191 191 192 193 193 195 199 203 205 206 206 207 209 211 211 210 209 208 207 208 207 206 202 199 197 197 198 199 201 204 205 205 206 207 209 210 212 213 213 213 212 212 212 213 213 213 212 211 209 208 207 206 205 205 204 205 205 207 209 211 213 215 218 221 223 225 226
195 193 192 192 193 193 194 197 200 203 206 209 210 211 211 210 210 209 208 207 206 207 209 209 208 207 207 206 206 207 208 208 206 205 206 208 210 212 213 214 214 213 213 212 212 212 212 212 211 210 209 207 206 205 204 203 203 203 205 207 210 212 215 217 220 222 224 226 227
196 194 194 193 194 194 196 199 202 204 207 210 212 212 211 210 209 208 208 207 207 207 208 209 209 210 212 214 216 215 214 211 208 206 206 208 211 213 214 214 215 214 213 212 211 211 211 210 209 209 207 206 205 204 203 203 202 202 204 207 210 213 216 219 221 223 225 226 227
198 196 196 196 196 196 198 200 202 204 206 208 210 210 209 209 208 208 208 208 208 208 209 209 209 209 211 215 219 219 217 213 210 208 208 210 212 213 214 214 215 214 213 211 210 209 209 208 208 207 206 205 205 204 204 203 201 201 202 205 209 213 217 220 222 223 224 225 225
199 198 198 198 198 199 200 201 203 204 205 206 207 208 208 208 208 208 208 208 208 209 209 209 209 209 211 215 218 218 216 212 210 209 210 211 212 213 213 213 213 212 211 209 207 207 206 206 206 205 204 203 203 203 203 202 201 201 202 205 209 213 217 220 222 223 224 224 224
198 198 199 200 201 201 202 204 204 204 204 205 206 207 207 208 208 208 208 208 208 208 208 208 208 209 210 213 215 215 213 211 209 209 210 211 212 212 211 210 210 209 208 206 205 204 204 204 204 203 202 202 202 202 201 201 200 201 203 206 210 213 217 219 221 223 223 224 225
196 197 199 201 202 203 205 206 207 206 206 206 206 207 207 207 207 207 206 206 207 207 206 205 205 206 208 210 212 212 212 210 209 209 209 210 209 209 207 206 205 205 204 204 203 202 202 203 203 202 202 201 201 201 200 200 201 202 205 208 211 214 217 220 223 224 225 225 226
194 196 198 200 202 204 206 207 209 209 209 208 207 207 207 206 206 205 204 204 204 203 202 201 201 202 204 206 208 209 210 209 209 208 207 207 206 204 203 202 202 201 201 201 201 201 201 202 202 202 202 202 201 201 201 201 203 204 207 210 213 216 219 222 225 227 228 227 227
195 196 197 199 201 204 206 208 209 210 210 209 207 206 205 204 202 201 199 199 199 199 198 196 195 196 199 201 204 206 206 206 206 206 205 203 202 201 200 199 199 199 199 200 200 200 200 200 201 201 202 202 202 203 203 204 205 207 209 212 215 218 222 226 228 230 230 229 228
198 198 198 199 201 204 206 208 209 209 208 207 204 203 201 200 199 197 196 195 195 194 192 191 191 192 195 197 200 201 202 202 202 202 201 201 200 199 199 198 198 198 199 200 200 199 199 199 200 201 202 203 203 205 206 206 207 208 210 214 217 221 225 228 230 231 230 229 228
201 201 201 201 203 205 207 206 206 205 205 203 201 199 198 198 197 196 195 195 193 191 189 187 187 189 192 194 195 196 197 197 198 199 200 200 200 200 199 199 198 199 200 200 201 201 200 200 201 203 204 205 206 207 207 207 207 208 211 214 219 222 226 228 230 230 229 228 227
204 205 205 205 206 206 204 198 196 198 200 200 198 197 197 197 197 197 196 195 193 190 187 185 186 188 190 191 191 192 192 194 196 198 200 201 201 201 200 200 199 199 200 201 201 201 202 202 203 204 206 207 208 208 207 207 207 208 211 215 219 222 225 227 228 227 226 224 223
206 207 208 208 207 203 197 189 185 187 193 196 196 196 196 197 197 197 196 195 193 190 187 185 185 188 190 190 190 190 192 195 197 198 199 200 201 201 200 199 199 199 199 199 200 200 201 202 204 205 205 206 206 206 206 206 206 208 211 215 218 221 223 223 223 222 220 219 217
204 205 205 203 200 197 192 187 181 180 184 189 192 192 191 192 193 193 194 193 192 189 187 185 186 188 190 190 191 193 194 195 195 194 195 196 197 197 196 196 196 196 196 197 198 199 201 202 203 203 202 201 201 202 202 203 203 205 208 212 215 216 216 215 214 213 212 212 212
197 197 196 194 192 191 191 191 185 178 176 180 183 183 182 183 185 186 187 187 185 184 184 184 186 188 189 190 192 193 191 188 187 187 188 190 190 191 191 192 193 194 195 195 196 197 198 199 199 198 196 194 193 194 195 196 196 198 201 205 209 210 210 209 208 208 209 209 211
185 186 188 189 189 190 191 191 185 177 172 173 174 175 175 176 178 179 179 179 179 179 180 182 183 184 186 188 189 187 183 180 180 183 185 187 187 188 189 191 193 195 194 192 192 193 195 195 191 187 185 184 184 185 185 186 187 189 192 197 203 207 208 209 211 212 214 216 218
176 180 185 188 188 187 186 182 175 170 169 170 170 171 171 171 171 170 170 172 172 174 177 180 180 180 181 183 183 181 178 177 180 183 186 187 188 189 191 193 193 191 189 188 189 191 191 188 182 177 176 177 178 178 177 178 180 183 189 195 202 208 212 215 217 220 224 227 228
172 178 183 185 183 179 174 169 164 163 164 166 168 170 171 170 167 165 164 165 167 169 174 178 179 179 179 179 179 179 179 180 182 185 188 189 190 191 193 192 190 186 184 184 186 186 183 178 175 175 176 177 178 179 180 183 186 192 199 206 212 218 222 225 227 230 233 236 238
172 176 179 179 175 170 166 164 164 164 165 168 171 173 174 174 172 169 167 166 166 170 175 180 182 183 182 182 181 182 182 183 186 189 191 192 192 193 192 190 186 181 178 178 178 177 175 175 177 180 183 185 189 192 198 203 209 215 220 224 227 230 233 235 238 241 245 248 248
174 175 176 175 172 169 169 171 173 176 178 179 180 179 177 176 176 175 174 172 172 174 178 182 185 187 188 188 187 186 185 186 188 192 196 197 196 194 191 188 183 178 175 174 174 175 177 180 185 190 195 201 207 214 221 228 234 239 241 242 241 240 240 242 244 247 251 253 253
177 176 176 175 173 173 176 179 184 188 190 190 189 188 187 183 181 180 179 178 178 180 183 186 188 189 190 191 192 191 190 190 190 193 198 201 199 195 191 186 183 180 179 180 181 184 187 191 196 202 210 217 224 229 234 240 245 250 252 252 250 248 246 246 246 247 248 249 251
180 179 178 178 177 178 180 182 186 189 191 192 192 192 191 191 190 189 189 190 191 193 197 202 204 202 199 196 197 198 199 197 196 196 198 201 202 200 196 193 191 191 192 195 197 199 201 204 208 212 218 223 228 232 236 241 247 252 255 255 253 251 249 246 244 242 242 243 246
170 177 182 184 186 186 186 186 186 189 194 198 201 198 195 193 193 193 194 196 199 203 207 213 218 219 214 207 204 205 206 205 201 199 199 200 202 203 204 204 205 206 207 209 209 210 211 211 213 215 218 222 225 229 234 239 246 252 254 254 253 250 248 245 242 240 238 237 238
110 123 138 155 172 186 193 195 194 195 201 209 216 218 213 207 202 198 196 195 197 201 205 210 215 218 217 213 210 209 209 208 204 201 200 199 201 202 205 207 210 212 213 213 213 213 214 215 216 217 219 222 225 228 232 238 244 250 253 253 251 250 248 246 244 243 240 236 233
85 86 88 90 94 102 126 171 195 203 208 213 219 225 228 226 220 213 206 201 199 200 202 206 209 212 213 212 212 211 210 208 205 202 201 201 202 203 205 207 210 212 214 215 216 218 220 222 224 225 226 228 230 232 235 239 244 249 252 253 252 250 248 246 245 243 239 234 230
82 81 81 81 81 80 82 87 108 171 203 211 216 221 226 230 228 224 219 214 211 209 209 210 213 215 216 217 216 214 211 208 206 204 204 205 206 208 209 210 213 215 217 219 221 224 226 229 231 232 233 234 234 236 238 242 247 252 254 254 252 249 246 244 242 239 235 230 227
83 83 83 83 83 83 83 81 81 86 106 173 205 213 218 222 223 222 221 220 218 218 218 220 222 224 226 225 223 220 216 213 211 210 211 213 215 217 218 218 219 221 222 224 225 226 227 229 231 232 233 233 234 237 241 246 251 255 256 255 251 246 242 239 236 232 229 226 225
84 85 87 89 92 94 94 88 79 72 69 67 82 178 211 215 215 215 216 217 218 219 221 223 226 228 229 229 228 227 225 222 221 221 222 223 225 226 227 228 228 228 227 226 224 223 223 225 227 228 230 232 235 239 244 249 252 254 253 249 244 238 234 230 226 223 221 220 221
109 111 113 115 116 119 120 115 110 92 63 29 360 352 338 276 222 210 208 209 211 214 217 220 223 225 228 230 232 232 232 230 229 229 230 232 233 234 234 234 234 232 229 225 222 221 221 223 226 229 232 235 238 241 244 246 247 245 241 236 230 226 223 220 217 215 214 214 215
133 148 160 166 171 177 179 179 185 200 224 245 262 275 285 288 277 238 207 199 198 202 207 212 218 223 227 231 233 234 233 233 233 233 234 235 236 236 235 235 233 230 227 224 222 222 224 226 229 231 233 235 236 237 236 234 231 227 223 220 218 215 214 212 211 210 210 209 209
89 101 125 154 180 196 206 211 215 222 230 238 246 253 259 263 264 258 239 211 197 195 199 204 211 218 224 228 229 230 229 230 230 231 232 232 233 232 231 230 228 226 225 223 223 224 225 227 228 228 228 228 226 223 218 213 210 208 207 206 206 205 205 204 203 202 201 200 198
69 73 78 87 101 125 160 187 204 214 223 231 237 242 247 253 257 257 251 239 225 212 207 207 210 215 220 224 226 226 225 224 224 225 225 226 226 225 224 222 221 220 220 220 220 221 221 221 220 218 216 213 208 203 199 197 196 196 195 194 193 192 191 190 189 188 187 186 185
66 69 72 75 79 84 91 103 120 148 179 199 215 223 230 236 241 245 244 240 234 226 217 213 212 214 217 221 223 224 223 221 220 219 219 219 219 217 215 214 213 212 211 211 211 211 209 207 205 203 201 198 194 192 191 190 190 188 187 185 183 181 180 180 180 180 180 180 181
63 65 66 67 70 72 76 80 83 90 98 111 133 168 194 209 215 219 221 222 219 215 210 206 203 202 206 212 216 219 221 220 217 214 212 211 210 208 206 203 200 198 198 197 197 196 195 193 192 191 191 190 189 188 187 186 185 184 182 180 178 176 176 177 177 178 179 180 181
54 56 57 58 61 63 67 70 72 75 78 79 81 83 87 98 116 136 152 163 171 177 182 182 177 175 178 187 196 203 208 211 208 204 200 199 198 198 196 193 189 187 186 186 186 186 185 185 185 185 185 185 185 184 183 182 181 179 178 176 175 174 175 176 177 178 179 179 180
46 46 47 49 52 54 57 59 61 63 66 68 70 70 71 73 77 83 90 96 107 125 142 149 148 148 150 156 167 176 184 190 192 191 188 186 185 187 189 187 183 181 179 179 180 180 181 181 181 181 182 181 180 178 177 175 174 174 173 173 173 173 174 175 177 178 178 179 180
44 42 41 42 43 44 45 46 48 50 52 55 58 60 61 63 67 72 77 82 90 102 116 125 130 133 138 145 153 161 167 173 177 180 179 177 176 179 182 183 180 178 177 177 178 178 179 179 178 178 177 175 173 172 171 170 170 170 171 173 174 175 175 176 177 178 179 180 181
45 44 42 41 41 40 39 38 39 40 41 42 44 46 49 50 54 59 69 80 90 100 110 119 125 130 137 144 153 160 165 169 173 175 175 173 171 172 176 178 178 178 178 178 178 178 178 177 176 174 171 169 167 167 167 169 170 171 173 175 176 177 177 177 178 179 181 182 183
46 45 44 43 43 43 42 41 40 38 37 36 36 36 36 36 38 40 50 69 91 106 113 120 127 134 143 152 160 166 170 172 174 175 174 173 170 170 172 175 178 179 180 180 180 180 179 177 174 170 167 165 165 166 169 172 174 175 176 176 178 179 179 180 180 182 184 186 187